Regional Weather Roundup
Issued by NWS New Orleans/Baton Rouge, LA

Home | Current Version | Previous Version | Graphics & Text | Print | Product List | Glossary On
Versions: 1 2 3 4 5 6 7 8 9 10 11 12 13 14 15 16 17 18 19 20 21 22 23 24 25 26 27 28 29 30 31 32 33 34 35 36 37 38 39 40 41 42 43 44 45 46 47 48 49 50
898
ASUS44 KLIX 181701
RWRLIX
NEW ORLEANS REGIONAL WEATHER ROUNDUP
NATIONAL WEATHER SERVICE NEW ORLEANS LA
1200 PM CDT THU SEP 18 2014

NOTE: "FAIR" INDICATES FEW OR NO CLOUDS BELOW 12,000 FEET WITH NO
      SIGNIFICANT WEATHER AND/OR OBSTRUCTIONS TO VISIBILITY.
      SKY/WX - SKY CONDITION AND SIGNIFICANT WEATHER.
      TMP - AIR TEMPERATURE.     DP    - DEWPOINT TEMPERATURE.
      RH  - RELATIVE HUMIDITY.   PRES  - PRESSURE.
      HI  - HEAT INDEX.          WCI   - WIND CHILL INDEX.

*  THESE STATIONS ARE NOT NWS OR FAA STATIONS AND ARE NOT UNDER
   NWS QUALITY CONTROL.

LAZ038-040-048-061>063-065>067-069-181800-
SOUTHEAST LOUISIANA

CITY           SKY/WX    TMP DP  RH WIND       PRES   REMARKS
N.O. AUDUBON     N/A     87  73  64 MISG        N/A
N.O. INTL ARPT CLOUDY    88  71  57 CALM      29.92F
N.O. LAKEFRONT CLOUDY    86  71  60 SE6       29.93F
N.O. DOWNTOWN*   N/A     88  70  55 SE7       29.93F
SLIDELL        CLOUDY    85  72  65 SE5       29.92F
BATON ROUGE    CLOUDY    83  73  72 VRB5      29.93F
BOOTHVILLE     PTSUNNY   86  75  69 NE6       29.94F HX  95
BELLE CHASSE   CLOUDY    86  73  65 E5        29.92F
BOGALUSA*        N/A     84  72  67 CALM      29.95F
GALLIANO*      NOT AVBL
NEW ROADS*       N/A     80  74  81 MISG      29.94S
GONZALES*      PTSUNNY   85  76  74 SE5       29.92F HX  95
HAMMOND*       NOT AVBL
HOUMA*         PTSUNNY   84  61  45 MISG      29.93F
PORT FOURCHON* SUNNY     84  73  70 SE6       29.97S

$$

MSZ070-080>082-181800-
SOUTHERN MISSISSIPPI

CITY           SKY/WX    TMP DP  RH WIND       PRES   REMARKS
MCCOMB         CLOUDY    80  73  79 CALM      29.95F
GULFPORT       MOSUNNY   87  72  60 SE9       29.92F
BILOXI         NOT AVBL
PASCAGOULA     PTSUNNY   87  73  62 VRB5      29.93F
STENNIS ARPT*  MOSUNNY   88  68  51 CALM      29.93F

$$

COASTAL OBSERVATIONS
LAKE AND NEARSHORE STATIONS

STATION/POSITION TIME  TEMP    WIND        PRES    WAVE
                       AIR SEA DIR/SP/G            HT/PER
                 (UTC) (F)     (DEG/KT/KT) (MB)    (FT/S)
PASCAGOULA       1600   86     180/  6/  9 1013.4
WAVELAND YACHT   1600   83     150/  6/  6 1013.1
GRAND ISLE       1600   84 87  100/  4/  8 1014.3
SOUTHWEST PASS   1600   88 91  140/  2/  3 1014.2
NEW CANAL        1600   83 83   40/  6/  7 1013.9
SHELL BEACH      1600   82 81   20/  5/  6 1013.5

OFFSHORE STATIONS

STATION/POSITION TIME  TEMP    WIND        PRES    WAVE
                       AIR SEA DIR/SP/G            HT/PER
                 (UTC) (F)     (DEG/KT/KT) (MB)    (FT/S)
64 S DAUPHIN ISL 1644   83 86  100/  6/  6 1014.2    1/ 4

$$




USA.gov is the U.S. government's official web portal to all federal, state and local government web resources and services.